Location: Forli
(44.2227°N, 12.0407°E)
Time: 12:12:27
(UTC+01:00)

BlueWalker 3 - Visible Passes

Search period start: 17 February 2026 00:00
Search period end: 27 February 2026 00:00
Orbit: 451 x 461 km, 53.2° (Epoch: 16 February)

Date Brightness Start Highest point End Pass type
(mag) Time Alt. Az. Time Alt. Az. Time Alt. Az.
21 Feb 4.5 06:26:30 10° S 06:29:15 21° SE 06:32:00 10° E visible
22 Feb 4.6 05:51:13 10° S 05:53:29 16° SE 05:55:45 10° E visible
23 Feb 4.8 05:16:17 10° SSE 05:17:43 12° SE 05:19:10 10° ESE visible
24 Feb 2.1 06:15:13 10° SW 06:18:46 65° SE 06:22:21 10° ENE visible
25 Feb 2.5 05:39:45 12° SSW 05:42:54 49° SE 05:46:24 10° ENE visible
26 Feb 3.0 05:05:47 28° S 05:07:01 37° SE 05:10:23 10° ENE visible
